Volver al catálogo

METEOR 2-20 DEB

ActivoPO
NORAD 44698·DEBRIS·🇷🇺 Russia

Lanzado Sep 28, 1990 desde Plesetsk Cosmodrome

Loading…

Próximos Pases (próximas 24 horas)

TLE

EnvejeciendoSource: Space-Track

Época: Sep 6, 2026, 21:08 UTC

1 44698U 90086C   26249.88089563  .00000850  00000-0  54443-3 0  9990
2 44698  82.5083  86.1163 0022681 297.2787  62.6073 14.02261910629675

Sigue METEOR 2-20 DEB en tiempo real con AllMySat

Download on the App Store